Vorticity
9 8 23 15 4 1 15 9 7 11 10 7 5 10 8 7 4 6 6 8 11 6
24 19 13 12 6 14 10 11 10 8 5 8 10 9 8 8 5 7 6 12 8 8
16 17 11 8 12 11 9 12 8 8 11 6 11 3 5 12 6 10 8 12 6 12
14 6 5 6 3 3 5 11 16 14 8 6 2 2 6 8 10 8 10 11 3 8
12 9 5 7 2 6 10 8 7 8 10 3 2 11 5 7 8 11 9 8 3 10
5 18 10 5 1 6 3 8 3 3 8 7 1 11 10 10 8 7 7 4 7 11
24 15 16 10 11 13 10 7 11 4 -2 0 17 14 6 11 8 9 4 7 13 6
27 11 6 19 5 8 8 0 1 4 6 22 20 13 11 4 11 4 5 10 6 4
10 20 23 -0 14 1 -8 5 9 15 32 28 9 11 5 16 5 9 6 6 8 5
16 -12 -8 1 5 19 2 14 -3 28 49 5 10 11 12 4 6 8 12 11 10 9
53 17 -21 18 2 40 25 16 1 12 6 7 9 11 -10 6 10 7 -1 6 10 13
-2 32 5 -10 24 -12 -23 9 7 8 7 14 12 5 16 21 7 8 11 12 17 12
8 11 12 20 2 4 30 12 11 8 5 8 1 5 -6 -5 -3 -0 -5 -4 14 15
8 12 12 14 -1 7 -14 5 6 8 21 15 7 3 12 -0 9 3 11 14 8 12
Height
5629 5639 5648 5657 5663 5669 5672 5675 5679 5682 5687 5691 5695 5701 5706 5709 5711 5712 5713 5714 5715 5715
5621 5631 5639 5646 5652 5657 5661 5664 5668 5673 5677 5683 5690 5693 5697 5700 5702 5703 5704 5705 5706 5706
5613 5621 5628 5635 5642 5647 5649 5656 5660 5666 5671 5676 5682 5686 5688 5690 5693 5695 5695 5696 5697 5698
5603 5611 5618 5625 5631 5635 5643 5649 5654 5658 5662 5668 5672 5676 5679 5681 5684 5685 5685 5686 5687 5689
5596 5602 5610 5616 5622 5630 5635 5640 5645 5649 5653 5657 5661 5666 5669 5671 5674 5675 5675 5676 5677 5678
5589 5595 5602 5608 5615 5621 5626 5631 5635 5639 5643 5646 5651 5655 5658 5661 5663 5663 5665 5665 5666 5668
5583 5588 5595 5600 5605 5611 5616 5621 5626 5629 5632 5636 5639 5644 5648 5650 5652 5654 5655 5656 5656 5658
5578 5583 5589 5594 5600 5606 5611 5615 5618 5621 5623 5626 5629 5634 5637 5640 5642 5643 5644 5645 5646 5647
5576 5580 5584 5589 5593 5596 5601 5605 5608 5611 5613 5618 5622 5626 5629 5631 5632 5633 5634 5635 5636 5637
5572 5578 5580 5581 5587 5591 5595 5598 5601 5601 5604 5610 5614 5617 5620 5621 5622 5623 5625 5626 5626 5626
5563 5569 5573 5575 5580 5584 5587 5588 5589 5592 5597 5602 5605 5608 5611 5611 5612 5614 5615 5616 5615 5614
5560 5565 5567 5569 5572 5576 5575 5580 5582 5586 5589 5593 5596 5598 5600 5601 5603 5604 5605 5605 5604 5603
5558 5558 5559 5562 5567 5568 5569 5572 5576 5580 5582 5584 5587 5588 5590 5590 5592 5594 5594 5593 5592 5593
5554 5556 5558 5558 5560 5561 5563 5567 5569 5572 5572 5574 5576 5577 5578 5580 5580 5581 5581 5580 5581 5581